Location: Baumgarten
(49.0970°N, 12.7493°E)
Time: 18:09:54
(UTC+00:00)

Cosmos 304 Rocket - Pass Details

Date: 05 July 2020
Orbit: 679 x 688 km, 74.0° (Epoch: 12 August)

Event Time Altitude Azimuth Distance (km) Brightness Sun altitude
Rises 22:48:14 0° 339° (NNW) 3,069 8.6 -18.0°
Reaches altitude 10° 22:50:37 10° 344° (NNW) 2,149 7.6 -18.1°
Maximum altitude 22:55:21 53° 62° (ENE) 849 4.3 -18.1°
Enters shadow 22:58:05 24° 130° (SE) 1,420 5.0 -18.2°
